Time,TemperatureF,DewpointF,PressureIn,WindDirection,WindDirectionDegrees,WindSpeedMPH,WindSpeedGustMPH,Humidity,HourlyPrecipIn,Conditions,Clouds,dailyrainin,SolarRadiationWatts/m^2,SoftwareType,DateUTC
2013-04-01 00:00:00,23.0,18.0,-100.00,West,270,6.0,-999.0,83,-99.99,,,-99.99,0.000000,,2013-04-01 04:00:00,
2013-04-01 00:43:00,23.0,18.0,-100.00,West,270,6.0,-999.0,83,-99.99,,,-99.99,0.000000,,2013-04-01 04:43:00,
2013-04-01 00:53:00,23.0,18.0,-100.00,West,270,6.0,-999.0,83,-99.99,,,-99.99,0.000000,,2013-04-01 04:53:00,
2013-04-01 01:00:00,22.0,18.0,-100.00,West,270,7.0,-999.0,85,-99.99,,,-99.99,0.000000,,2013-04-01 05:00:00,
2013-04-01 01:43:00,22.0,18.0,-100.00,West,270,7.0,-999.0,85,-99.99,,,-99.99,0.000000,,2013-04-01 05:43:00,
2013-04-01 01:53:00,22.0,18.0,-100.00,West,270,7.0,-999.0,85,-99.99,,,-99.99,0.000000,,2013-04-01 05:53:00,
2013-04-01 02:00:00,21.0,19.0,-100.00,WNW,292,5.0,-999.0,89,-99.99,,,-99.99,0.000000,,2013-04-01 06:00:00,
2013-04-01 02:43:00,21.0,19.0,-100.00,WNW,292,5.0,-999.0,89,-99.99,,,-99.99,0.000000,,2013-04-01 06:43:00,
2013-04-01 02:53:00,21.0,19.0,-100.00,WNW,292,5.0,-999.0,89,-99.99,,,-99.99,0.000000,,2013-04-01 06:53:00,
2013-04-01 03:00:00,21.0,18.0,-100.00,WNW,292,6.0,-999.0,90,-99.99,,,-99.99,0.000000,,2013-04-01 07:00:00,
2013-04-01 03:43:00,21.0,18.0,-100.00,WNW,292,6.0,-999.0,90,-99.99,,,-99.99,0.000000,,2013-04-01 07:43:00,
2013-04-01 03:53:00,21.0,18.0,-100.00,WNW,292,6.0,-999.0,90,-99.99,,,-99.99,0.000000,,2013-04-01 07:53:00,
2013-04-01 04:00:00,20.0,16.0,-100.00,WSW,247,5.0,-999.0,82,-99.99,,,-99.99,0.000000,,2013-04-01 08:00:00,
2013-04-01 04:43:00,20.0,16.0,-100.00,WSW,247,5.0,-999.0,82,-99.99,,,-99.99,0.000000,,2013-04-01 08:43:00,
2013-04-01 04:53:00,20.0,16.0,-100.00,WSW,247,5.0,-999.0,82,-99.99,,,-99.99,0.000000,,2013-04-01 08:53:00,
2013-04-01 06:00:00,19.0,15.0,-100.00,WNW,292,5.0,-999.0,85,-99.99,,,-99.99,0.000000,,2013-04-01 10:00:00,
2013-04-01 06:43:00,19.0,15.0,-100.00,WNW,292,5.0,-999.0,85,-99.99,,,-99.99,0.000000,,2013-04-01 10:43:00,
2013-04-01 06:53:00,19.0,15.0,-100.00,WNW,292,5.0,-999.0,85,-99.99,,,-99.99,0.000000,,2013-04-01 10:53:00,
2013-04-01 08:00:00,18.0,12.0,-100.00,WNW,292,6.0,-999.0,77,-99.99,,,-99.99,4.640000,,2013-04-01 12:00:00,
2013-04-01 08:43:00,18.0,12.0,-100.00,WNW,292,6.0,-999.0,77,-99.99,,,-99.99,4.640000,,2013-04-01 12:43:00,
2013-04-01 08:53:00,18.0,12.0,-100.00,WNW,292,6.0,-999.0,77,-99.99,,,-99.99,4.640000,,2013-04-01 12:53:00,
2013-04-01 09:00:00,19.0,9.0,-100.00,SW,225,6.0,-999.0,66,-99.99,,,-99.99,77.720001,,2013-04-01 13:00:00,
2013-04-01 09:43:00,19.0,9.0,-100.00,SW,225,6.0,-999.0,66,-99.99,,,-99.99,77.720001,,2013-04-01 13:43:00,
2013-04-01 09:53:00,19.0,9.0,-100.00,SW,225,6.0,-999.0,66,-99.99,,,-99.99,77.720001,,2013-04-01 13:53:00,
2013-04-01 10:00:00,19.0,12.0,-100.00,WNW,292,6.0,-999.0,73,-99.99,,,-99.99,122.959999,,2013-04-01 14:00:00,
2013-04-01 10:43:00,19.0,12.0,-100.00,WNW,292,6.0,-999.0,73,-99.99,,,-99.99,122.959999,,2013-04-01 14:43:00,
2013-04-01 10:53:00,19.0,12.0,-100.00,WNW,292,6.0,-999.0,73,-99.99,,,-99.99,122.959999,,2013-04-01 14:53:00,
2013-04-01 11:00:00,20.0,15.0,-100.00,WNW,292,6.0,-999.0,78,-99.99,,,-99.99,254.039993,,2013-04-01 15:00:00,
2013-04-01 11:43:00,20.0,15.0,-100.00,WNW,292,6.0,-999.0,78,-99.99,,,-99.99,254.039993,,2013-04-01 15:43:00,
2013-04-01 11:54:00,20.0,15.0,-100.00,WNW,292,6.0,-999.0,78,-99.99,,,-99.99,254.039993,,2013-04-01 15:54:00,
2013-04-01 13:00:00,23.0,13.0,-100.00,West,270,6.0,-999.0,63,0.01,,,-99.99,561.440002,,2013-04-01 17:00:00,
2013-04-01 13:42:00,23.0,13.0,-100.00,West,270,6.0,-999.0,63,0.01,,,-99.99,561.440002,,2013-04-01 17:42:00,
2013-04-01 13:53:00,23.0,13.0,-100.00,West,270,6.0,-999.0,63,0.01,,,-99.99,561.440002,,2013-04-01 17:53:00,
2013-04-01 15:00:00,26.0,12.0,-100.00,WNW,292,6.0,-999.0,54,0.05,,,-99.99,675.119995,,2013-04-01 19:00:00,
2013-04-01 15:43:00,26.0,12.0,-100.00,WNW,292,6.0,-999.0,54,0.05,,,-99.99,675.119995,,2013-04-01 19:43:00,
2013-04-01 15:53:00,26.0,12.0,-100.00,WNW,292,6.0,-999.0,54,0.05,,,-99.99,675.119995,,2013-04-01 19:53:00,
2013-04-01 16:00:00,26.0,13.0,-100.00,West,270,5.0,-999.0,59,-99.99,,,-99.99,544.039978,,2013-04-01 20:00:00,
2013-04-01 16:43:00,26.0,13.0,-100.00,West,270,5.0,-999.0,59,-99.99,,,-99.99,544.039978,,2013-04-01 20:43:00,
2013-04-01 16:52:00,26.0,13.0,-100.00,West,270,5.0,-999.0,59,-99.99,,,-99.99,544.039978,,2013-04-01 20:52:00,
2013-04-01 17:00:00,26.0,12.0,-100.00,WSW,247,6.0,-999.0,55,-99.99,,,-99.99,444.279999,,2013-04-01 21:00:00,
2013-04-01 17:43:00,26.0,12.0,-100.00,WSW,247,6.0,-999.0,55,-99.99,,,-99.99,444.279999,,2013-04-01 21:43:00,
2013-04-01 17:53:00,26.0,12.0,-100.00,WSW,247,6.0,-999.0,55,-99.99,,,-99.99,444.279999,,2013-04-01 21:53:00,
2013-04-01 18:00:00,25.0,10.0,-100.00,WSW,247,6.0,-999.0,52,-99.99,,,-99.99,381.640015,,2013-04-01 22:00:00,
2013-04-01 18:43:00,25.0,10.0,-100.00,WSW,247,6.0,-999.0,52,-99.99,,,-99.99,381.640015,,2013-04-01 22:43:00,
2013-04-01 18:52:00,25.0,10.0,-100.00,WSW,247,6.0,-999.0,52,-99.99,,,-99.99,381.640015,,2013-04-01 22:52:00,
2013-04-01 20:00:00,23.0,7.0,-100.00,WNW,292,3.0,-999.0,49,-99.99,,,-99.99,53.360001,,2013-04-02 00:00:00,
2013-04-01 20:43:00,23.0,7.0,-100.00,WNW,292,3.0,-999.0,49,-99.99,,,-99.99,53.360001,,2013-04-02 00:43:00,
2013-04-01 20:53:00,23.0,7.0,-100.00,WNW,292,3.0,-999.0,49,-99.99,,,-99.99,53.360001,,2013-04-02 00:53:00,
2013-04-01 22:00:00,21.0,7.0,-100.00,WSW,247,1.0,-999.0,55,-99.99,,,-99.99,0.000000,,2013-04-02 02:00:00,
2013-04-01 22:43:00,21.0,7.0,-100.00,WSW,247,1.0,-999.0,55,-99.99,,,-99.99,0.000000,,2013-04-02 02:43:00,
2013-04-01 22:53:00,21.0,7.0,-100.00,WSW,247,1.0,-999.0,55,-99.99,,,-99.99,0.000000,,2013-04-02 02:53:00,
2013-04-01 23:00:00,20.0,7.0,-100.00,WSW,247,2.0,-999.0,58,-99.99,,,-99.99,0.000000,,2013-04-02 03:00:00,
2013-04-01 23:43:00,20.0,7.0,-100.00,WSW,247,2.0,-999.0,58,-99.99,,,-99.99,0.000000,,2013-04-02 03:43:00,
2013-04-01 23:53:00,20.0,7.0,-100.00,WSW,247,2.0,-999.0,58,-99.99,,,-99.99,0.000000,,2013-04-02 03:53:00,